(413) Edburga
ephemeris date magn radius delta ra dec elong phase
Today25 Jun 202616.13.341 AU3.236 AU12h31m+17°39'87.1°17.7°
Opposition15 Jun 202712.92.329 AU1.325 AU17h36m-11°48'168.5°5.0°
(413) Edburga - 2026-06-25
astro.vanbuitenen.nl


 
-1 year
-1 month
-1 day
Now
+1 day
+1 month
+1 year

The interactive orbit chart above shows the body's path through the solar system and its position at the given date. Green and blue lines are shown perpendicular to the ecliptic plane: Green if the path is above the ecliptic plane, blue if it is below. (Left-click and drag to rotate the view; Right-click and drag to move the view; Use scroll wheel to zoom in our out.)

The orbital elements of Edburga are:

            e (Eccentricity)                : 0.3423249
            a (Semimajor axis)              : 2.5829868
            i (Inclination)                 : 18.73553
            Ω (Longitude of ascending node) : 103.66894
            ω (Argument of perihelion)      : 252.81286
            M (Mean anomaly)                : 217.25634
            Epoch                           : 2026 Jun 09

            L (Longitude of perihelion)     : 175.58125
            B (Latitude of perihelion)      : -17.86992
            P (Orbital period in years)     : 4.15            
        

The light curve chart below shows the estimated development of the minor planet's magnitude.


The all-sky chart below shows the path of the minor planet over the same period as the light curve. The current position is marked yellow.





The following chart shows the path of the minor planet in the next few days. The field of view is optimized for (~10x50) binoculars and finderscopes.




Ephemerides:
Date       Time       RA (2000)    DEC (2000)    delta   radius  elong  phase   PA    magn
2026-06-25 00:00 UT   12 31 40.9   +17 39 26     3.236    3.341   87.1   17.7   114   16.1 
2026-06-25 13:34 UT   12 31 53.8   +17 34 45     3.242    3.340   86.6   17.7   113   16.1 
2026-06-26 00:00 UT   12 32 03.8   +17 31 08     3.248    3.340   86.3   17.7   113   16.1 
2026-06-27 00:00 UT   12 32 27.6   +17 22 46     3.260    3.338   85.5   17.7   113   16.1 
2026-06-28 00:00 UT   12 32 52.3   +17 14 20     3.272    3.337   84.8   17.7   113   16.2 
2026-06-29 00:00 UT   12 33 17.9   +17 05 52     3.284    3.335   84.0   17.6   113   16.2 
2026-06-30 00:00 UT   12 33 44.3   +16 57 20     3.296    3.334   83.3   17.6   112   16.2 
2026-07-01 00:00 UT   12 34 11.7   +16 48 46     3.308    3.332   82.5   17.6   112   16.2 
2026-07-02 00:00 UT   12 34 39.9   +16 40 09     3.321    3.331   81.8   17.6   112   16.2 
2026-07-03 00:00 UT   12 35 08.9   +16 31 29     3.333    3.329   81.0   17.6   111   16.2 
2026-07-04 00:00 UT   12 35 38.8   +16 22 46     3.345    3.328   80.3   17.5   111   16.2 
2026-07-05 00:00 UT   12 36 09.5   +16 14 00     3.356    3.326   79.6   17.5   111   16.2 
2026-07-06 00:00 UT   12 36 41.1   +16 05 12     3.368    3.325   78.8   17.5   111   16.2 
2026-07-07 00:00 UT   12 37 13.4   +15 56 22     3.380    3.323   78.1   17.4   110   16.2 
2026-07-08 00:00 UT   12 37 46.6   +15 47 29     3.392    3.322   77.4   17.4   110   16.2 
2026-07-09 00:00 UT   12 38 20.5   +15 38 34     3.404    3.320   76.7   17.3   110   16.2 
2026-07-10 00:00 UT   12 38 55.2   +15 29 36     3.416    3.318   75.9   17.3   110   16.2 
2026-07-11 00:00 UT   12 39 30.7   +15 20 37     3.427    3.317   75.2   17.2   109   16.2 
2026-07-12 00:00 UT   12 40 07.0   +15 11 35     3.439    3.315   74.5   17.2   109   16.2 
2026-07-13 00:00 UT   12 40 44.0   +15 02 31     3.451    3.314   73.8   17.1   109   16.2 
2026-07-14 00:00 UT   12 41 21.8   +14 53 25     3.462    3.312   73.1   17.1   109   16.2 
2026-07-15 00:00 UT   12 42 00.3   +14 44 17     3.474    3.310   72.4   17.0   108   16.2 
2026-07-16 00:00 UT   12 42 39.5   +14 35 08     3.485    3.309   71.7   17.0   108   16.2 
2026-07-17 00:00 UT   12 43 19.4   +14 25 57     3.496    3.307   71.0   16.9   108   16.3 
2026-07-18 00:00 UT   12 44 00.1   +14 16 44     3.508    3.305   70.2   16.8   108   16.3 
2026-07-19 00:00 UT   12 44 41.4   +14 07 30     3.519    3.304   69.5   16.8   107   16.3 
2026-07-20 00:00 UT   12 45 23.4   +13 58 14     3.530    3.302   68.9   16.7   107   16.3 
2026-07-21 00:00 UT   12 46 06.1   +13 48 56     3.541    3.300   68.2   16.6   107   16.3 
2026-07-22 00:00 UT   12 46 49.5   +13 39 38     3.552    3.299   67.5   16.5   107   16.3 
2026-07-23 00:00 UT   12 47 33.5   +13 30 18     3.563    3.297   66.8   16.4   106   16.3 
2026-07-24 00:00 UT   12 48 18.1   +13 20 57     3.574    3.295   66.1   16.4   106   16.3 
2026-07-25 00:00 UT   12 49 03.4   +13 11 34     3.584    3.294   65.4   16.3   106   16.3 


    Terminology:
            
    delta:  distance between minor planet and earth in AU
    radius: distance between minor planet and sun in AU
    magn:   magnitude (brightness) estimate    
    ra:     right ascension in hours (24h = 360deg)
    dec:    declination in degrees
    elong:  elongation in degrees (angle sun-earth-minor planet)    
    phase:  phase angle in degrees (angle sun-minor planet-earth)        
    AU:     Astronomical Unit (mean distance between earth and sun: 149597870.7 km
    

Orbital elements provided by the MPC (Minor Planet Center).
Calculations by a modified version of AAPlus, a C# implementation of the AA+ project by PJ Naughter from the algorithms presented in the book "Astronomical Algorithms" by Jean Meeus.
NGC2000 dso catalog and star labels from VizieR as provided by the Strasbourg astronomical Data Center.
Tycho2 catalog from the ESO archive.